sat.trackr.live / text

‹ back to catalog

STARLINK-37938

NORAD 69568 · 2026-135Y

PAYLOAD ACTIVE UNKNOWN

§ Identity

Operator
Country
US
Launch date
2026-06-15
Launch site
AFWTR
Launch vehicle
Mass (kg)
RCS (m²)

Purposes: comms

External: N2YO · Heavens-Above · Gunter

§ Orbital elements

Epoch: 2026-09-19T12:22:58.169856Z

Period
93.91 min
Inclination
97.2820°
Eccentricity
0.0001103
Mean motion
15.33447576 rev/d
Perigee alt
464.8 km
Apogee alt
466.3 km
Semi-major
6,843.7 km
B*
4.6722e-4
RAAN
290.2780°
Arg perigee
71.5115°
Mean anomaly
288.6248°
Rev number
1,485

§ Raw data

STARLINK-379381 69568U 26135Y   26262.51595104  .00015040  00000+0  46722-3 0  99922 69568  97.2820 290.2780 0001103  71.5115 288.6248 15.33447576 14858

JSON: /api/v1/satellites/69568 · /tle

For live sub-satellite position, see the globe view (requires WebGL).

§ Visibility from observer

Set your observer location to see the next 7 days of passes ≥ 10°. The values pass through the URL so the page stays shareable.

No JS? Fill the form by hand. The geolocation button needs JavaScript.